Terminal Aerodrome Forecast
Issued by NWS Spokane, WA

Home | Current Version | Previous Version | Text Only | Print | Product List | Glossary On
Versions: 1 2 3 4 5 6 7 8 9 10 11 12 13 14
000
FTUS46 KOTX 190520
TAFEAT
TAF
KEAT 190520Z 1906/2006 30012KT P6SM BKN200
     FM190700 31006KT P6SM FEW150 BKN200
     FM192000 29012G20KT P6SM SCT080 BKN100 OVC200
     FM200000 28027G30KT P6SM BKN080 BKN100 BKN200=

USA.gov is the U.S. government's official web portal to all federal, state and local government web resources and services.